Other Public Products
Issued by NWS Grand Forks, ND

Home | Current Version | Previous Version | Graphics & Text | Print | Product List | Glossary On
Versions: 1 2 3 4 5 6 7 8 9 10 11 12 13 14 15 16 17 18 19 20 21 22 23 24 25 26 27 28 29 30 31 32 33 34 35 36 37 38 39 40 41 42 43 44 45 46 47 48 49 50
558
FPUS83 KFGF 301131
OPUFGF
PRAIRIE TO PINES WEATHER ROUNDUP
NATIONAL WEATHER SERVICE EASTERN NORTH DAKOTA/GRAND FORKS ND
600 AM CDT SAT JUL 30 2016

 **SATELLITE DATA USED TO AUGMENT SKY COVER AT AUTOMATED STATIONS**
 *****  WEATHER ACROSS EASTERN NORTH DAKOTA  *****

CITY           SKY/WX    TMP DP  RH WIND       PRES   REMARKS
GRAND FORKS    CLOUDY    65  61  87 SE6       29.94F
GRAND FORKS AF PTCLDY    63  62  94 SE8       29.95S
GRAND CITY NWS NOT AVBL
BUXTON           N/A     65  65  97 SE6         N/A
DEVILS LAKE    MOCLDY    66  62  87 S9        29.94S
FARGO          PTCLDY    66  60  81 S8        29.97S
WAHPETON ARPT  MOSUNNY   63  57  82 SE6       29.99F
$$

 *****  WEATHER ACROSS CENTRAL AND WESTERN NORTH DAKOTA  *****

CITY           SKY/WX    TMP DP  RH WIND       PRES   REMARKS
JAMESTOWN      PTCLDY    63  59  87 S9        29.94F
BISMARCK       CLOUDY    65  63  93 E8        29.93S
MINOT          CLEAR     64  60  87 S6        29.89F
MINOT AFB      CLEAR     56  55  97 SW5       29.88F
GARRISON         N/A     61  61 100 E5        29.90F
WILLISTON      CLEAR     56  53  90 CALM      29.89F
DICKINSON      FOG       52  52 100 CALM      29.91S VSB 1/4
HETTINGER      CLEAR     55  54  96 CALM      29.94F
$$

 *****  OTHER OBSERVATIONS NORTHEAST NORTH DAKOTA  *****

CITY           SKY/WX    TMP DP  RH WIND       PRES   REMARKS
WALHALLA       FAIR      63  59  88 CALM      29.93S
LANGDON        FAIR      63  63 100 SE12      29.95S
CAVALIER       LGT RAIN  63  63 100 S6        29.94F
GRAFTON        DRIZZLE   63  63 100 CALM      29.97S
CANDO          FAIR      59  59 100 SE5       29.94F FOG
FORT TOTTEN      N/A     62  60  93 SE7       29.95S
ROLLA          FOG       57  57 100 SW3       29.94S VSB<1/4
RUGBY          NOT AVBL
 ***** THE ABOVE OBSERVATIONS ARE NON NWS ARE NOT QUALITY
        CONTROLLED AND MAY MIS-REPORT RAIN FOR SNOW...
$$

 *****  OTHER OBSERVATIONS SOUTHEAST NORTH DAKOTA *****

CITY           SKY/WX    TMP DP  RH WIND       PRES   REMARKS
COOPERSTOWN    NOT AVBL
VALLEY CITY    FAIR      63  63 100 S10       29.98F
OAKES            N/A    N/A N/A N/A MISG        N/A
GWINNER        FAIR      63  61  94 S6        29.99R
SHEYENNE NWR     N/A     62  59  91 CALM      29.95S
BUFFALO          N/A     63  59  87 S6          N/A
WYNDMERE         N/A    N/A N/A N/A SE2         N/A
 ***** THE ABOVE OBSERVATIONS ARE NON NWS ARE NOT QUALITY
       CONTROLLED AND MAY MIS-REPORT RAIN FOR SNOW...
$$

  *****  WEATHER ACROSS NORTHERN MINNESOTA  *****

CITY           SKY/WX    TMP DP  RH WIND       PRES   REMARKS
FLAG ISLAND    CLEAR     66  61  82 CALM      29.96F
WARROAD        CLEAR     55  52  88 S3        29.99S
ROSEAU         CLEAR     54  48  82 CALM      29.98S
HALLOCK        PTCLDY    57  55  94 S6        29.95S
THF RVR FALLS  CLOUDY    56  55  97 SE5       30.00R
HALSTAD          N/A     64  63  96 E6          N/A
FOSSTON        CLOUDY    63  59  88 S6        30.01S
BAUDETTE       CLEAR     56  54  93 S6        30.00R
WASKISH        CLEAR     59  55  88 S5        30.02R FOG
CROOKSTON      CLOUDY    64  63  94 CALM      29.98S
$$
  *****  WEATHER ACROSS CENTRAL AND WEST MINNESOTA  *****

CITY           SKY/WX    TMP DP  RH WIND       PRES   REMARKS
BEMIDJI        PTCLDY    58  56  92 CALM      30.03S
PARK RAPIDS    CLEAR     60  55  83 SE6       30.03S
WADENA         NOT AVBL
DETROIT LAKES  CLOUDY    64  61  88 S7        30.02S
MOORHEAD       PTCLDY    64  61  88 S8        29.99S
FERGUS FALLS   CLOUDY    64  61  88 SE5       30.02S
ELBOW LAKE     CLOUDY    61  59  91 SE5       30.03R
MORRIS MN      CLEAR     57  57 100 SE6       30.01S
STAPLES        CLEAR     55  54  94 CALM      30.04S
WHEATON        NOT AVBL
$$
  *****  WEATHER ELSEWHERE ACROSS MINNESOTA  *****

CITY           SKY/WX    TMP DP  RH WIND       PRES   REMARKS
DULUTH         PTCLDY    55  52  89 CALM      30.07R
INTRNTL FALLS  PTCLDY    55  51  86 CALM      30.03S
ELY            CLOUDY    46  45  93 CALM      30.08S
CLOQUET        CLOUDY    46  45  93 CALM      30.07R
BRAINERD       CLEAR     56  55  97 CALM      30.05S
HIBBING        CLOUDY    43  43 100 CALM      30.07S FOG
ALEXANDRIA     CLEAR     60  56  86 CALM      30.05S
SAINT CLOUD    CLEAR     52  52 100 CALM      30.04S FOG
MINNEAPOLIS    MOCLDY    68  58  70 E5        30.02S
$$

  *****  WEATHER ACROSS SOUTH DAKOTA  *****

CITY           SKY/WX    TMP DP  RH WIND       PRES   REMARKS
SIOUX FALLS    PTCLDY    54  52  93 NE3       30.03S
BROOKINGS      CLEAR     57  54  89 SE5       30.03S
WATERTOWN      CLEAR     58  54  86 SE6       30.02S
HURON          CLEAR     58  55  90 SE7       29.99F
SISSETON         N/A     65  58  78 S3        29.99S
ABERDEEN       CLEAR     60  55  83 S7        29.98S
MITCHELL       CLEAR     59  56  89 SE6       30.01S
PIERRE         CLEAR     62  57  83 SE8       29.93F
MOBRIDGE       CLEAR     66  57  72 S12       29.92F
RAPID CITY     CLEAR     53  51  93 NW3       29.95F
$$

  *****  SOME WEATHER IN NEARBY STATES *****

CITY           SKY/WX    TMP DP  RH WIND       PRES   REMARKS
GLASGOW MT     CLEAR     60  52  74 E10       29.87F
GREAT FALLS MT CLEAR     60  48  64 S3        29.85F
CHEYENNE WY    CLOUDY    60  58  92 S7        30.11F
SCOTTSBLUFF NE MOCLDY    60  57  89 W3        30.02S
OMAHA NE       PTCLDY    62  59  90 CALM      30.01F
DES MOINES IA  DRIZZLE   68  65  90 NW6       30.00R
DAVENPORT IA   MOCLDY    67  65  93 N3        29.97S
CHICAGO IL     CLOUDY    71  65  81 NE10      29.95R
EAU CLAIRE WI  CLEAR     60  60 100 NE6       30.03F FOG
LA CROSSE WI   CLOUDY    67  64  90 NE6       30.02R
$$

  *****  SOME NATIONAL WEATHER *****

CITY           SKY/WX    TMP DP  RH WIND       PRES   REMARKS
LA GUARDIA NY  CLOUDY    75  71  87 E8        29.97R
RALEIGH NC     MOCLDY    78  72  81 SE6       29.96R
ATLANTA GA     PTCLDY    73  72  96 W7        30.02R
NEW ORLEANS LA PTCLDY    80  75  84 CALM      30.01S
OKLAHOMA CITY  CLOUDY    73  70  90 S6        29.96S
ALBUQUERQUE NM MOCLDY    67  56  67 N5        30.16F
SALT LAKE CITY PTCLDY    80  43  26 S8        29.92S
LOS ANGELES CA CLEAR     70  64  81 CALM      29.80S
BOISE ID       CLEAR     73  36  25 S7        29.80F
SEATTLE WA     MOCLDY    59  56  89 S9        29.93R
$$

*** WEATHER ACROSS MANITOBA...SASKATCHEWAN AND ONTARIO ***
                ***ONTARIO***

CITY           SKY/WX    TMP DP  RH WIND       PRES   REMARKS
GERALDTON      PTCLDY    50  48  93 S2        30.09R
THUNDER BAY    PTCLDY    46  46 100 W3        30.09R
SIOUX LOOKOUT  MOCLDY    57  55  94 S3        30.02R
TORONTO        LGT RAIN  68  54  60 E7        30.05R
BIG TROUT LK   CLOUDY    63  61  94 SW6       29.95R
PICKLE LAKE    PTCLDY    59  54  82 S7        30.01
DRYDEN         CLEAR     63  57  82 S9        30.01S
KENORA         PTCLDY    63  59  88 SE5       29.99R
$$
                *** MANITOBA***

CITY           SKY/WX    TMP DP  RH WIND       PRES   REMARKS
BRANDON        FOG       55  55 100 E5        29.90S VSB 1/4
DAUPHIN        CLEAR     64  59  82 SW8       29.85S
ISLAND LAKE    MOCLDY    63  61  94 S6        29.89F
PILOT MOUND      N/A     57  55  94 SE7         N/A
THE PAS        PTCLDY    57  57 100 SE7       29.80S
THOMPSON       LGT RAIN  63  61  94 VRB2      29.80F
WINNIPEG       PTCLDY    59  54  82 S7        29.93F
LYNN LAKE      CLOUDY    59  59 100 MISG      29.81S FOG
CHURCHILL      MOCLDY    52  46  82 SE8       29.96S
GILLAM         LGT RAIN  52  50  93 E7        29.87F
$$
                ***SASKATCHEWAN***

CITY           SKY/WX    TMP DP  RH WIND       PRES   REMARKS
ESTEVAN        PTCLDY    55  54  94 CALM      29.89F FOG
KINDERSLEY     PTCLDY    61  55  82 S10       29.81F
LLOYDMINSTER   CLEAR     59  54  82 W10       29.80R
PRINCE ALBERT  PTCLDY    54  52  94 SE2       29.79F
REGINA         CLEAR     52  52 100 E7        29.87F
YORKTON        CLEAR     61  57  88 SW7       29.85F   C1F1C2F2C3F3C4F4C5F5C6F6C7F7C8F8C9F9CaFaCbFbCcFcCdFdCe!



USA.gov is the U.S. government's official web portal to all federal, state and local government web resources and services.